Wind_Speed
38 37 35 34 33 32 31 30 30 30 28 27 25 25 25 24 24 23 22 21 19 15 16 19 19 18 17 15 13 12 12 13 14 14 14 13 13 12 12 12 11 11
39 38 36 34 33 32 31 30 30 29 26 25 24 25 24 24 24 22 20 19 17 15 17 20 19 17 15 13 12 12 13 14 14 14 14 13 13 12 12 11 11 11
39 38 37 36 34 32 31 31 30 28 25 24 25 25 25 25 24 22 20 18 16 15 17 18 17 16 14 12 12 13 14 14 14 14 14 14 13 12 12 12 11 11
40 39 37 35 34 32 32 31 31 28 26 25 26 25 25 25 24 22 19 17 16 16 17 17 16 15 14 12 13 15 15 15 14 14 15 15 14 13 13 12 12 11
39 39 37 35 34 33 32 32 31 29 26 26 26 26 26 25 23 21 19 17 17 17 18 17 16 15 14 13 14 16 16 16 16 16 15 15 15 14 13 13 12 11
39 39 37 35 34 33 32 32 30 28 26 26 27 27 26 25 23 20 18 17 17 18 19 18 17 16 15 15 16 16 16 16 16 16 16 16 15 14 14 13 12 12
40 39 37 35 34 33 32 31 29 27 26 27 27 28 27 25 22 19 17 17 18 18 19 18 17 16 16 16 16 17 17 17 17 17 17 16 15 15 14 13 13 12
39 38 36 35 34 33 32 30 29 27 26 26 27 28 27 25 22 19 17 17 18 19 19 18 17 17 17 17 17 17 18 18 18 17 17 17 16 15 14 14 13 13
39 38 36 35 34 33 31 30 28 26 26 26 27 27 27 24 21 19 18 18 19 19 19 18 18 18 17 17 17 18 18 18 18 18 17 17 17 16 15 14 14 13
39 38 37 35 35 33 31 29 28 26 25 26 27 27 25 23 21 19 18 18 19 19 19 19 18 18 17 17 18 18 18 19 19 18 18 18 17 16 15 14 14 14
39 38 38 36 35 33 31 30 28 27 26 27 27 26 24 22 22 20 18 17 19 19 19 18 17 17 17 17 18 19 19 19 19 19 19 18 17 16 15 14 14 14
38 39 39 37 35 33 32 31 29 28 27 28 27 25 24 23 21 19 18 18 19 19 18 17 17 17 17 18 18 19 20 20 20 20 19 18 18 17 15 15 14 14
38 39 39 38 35 34 33 32 30 28 28 28 27 25 24 23 21 18 18 18 19 18 17 16 16 17 17 18 19 20 21 21 21 20 19 18 18 17 16 15 15 15
39 38 38 37 35 34 34 32 30 29 28 28 27 26 24 22 19 18 18 19 19 18 17 16 17 17 18 19 20 20 21 21 21 20 19 19 19 18 18 16 15 15
39 38 37 37 36 35 34 33 31 29 28 29 28 25 24 22 19 17 18 19 19 19 17 17 17 18 18 19 19 20 21 21 21 20 20 20 19 19 19 17 16 15
40 39 38 38 37 36 34 33 31 30 30 30 28 25 23 22 19 18 19 20 20 19 18 18 18 18 18 18 19 20 20 21 21 20 20 21 20 20 19 17 16 15
41 40 40 39 37 36 34 34 33 31 31 31 28 25 24 23 20 19 19 19 19 18 18 18 18 18 18 17 18 19 20 20 21 21 21 21 20 19 18 17 16 15
43 42 40 39 37 36 36 35 33 32 32 31 29 27 26 24 20 18 18 19 19 19 18 18 17 17 17 17 18 19 20 20 19 20 21 21 19 18 17 16 14 13
43 42 40 39 37 36 36 35 34 34 33 31 29 28 27 23 19 17 17 19 20 20 19 18 17 16 16 17 18 18 19 19 19 20 20 20 19 17 16 14 12 11
43 41 39 38 37 36 35 34 34 34 32 29 29 29 26 22 20 18 18 19 20 20 19 18 17 17 17 17 18 18 18 19 19 20 19 19 19 17 16 14 11 10
43 40 38 37 36 36 35 34 35 34 29 27 30 29 26 23 21 19 18 19 20 20 19 19 18 18 18 18 18 18 18 18 19 19 19 20 19 18 19 18 15 14
42 40 37 36 36 36 35 35 35 32 26 26 30 29 26 24 22 20 18 18 19 20 20 20 20 20 19 19 18 18 19 19 19 20 21 22 21 20 21 19 18 18
40 38 36 36 35 35 35 35 34 30 25 26 30 30 28 26 24 21 19 18 19 20 21 21 21 21 21 20 19 20 20 20 20 20 21 22 21 20 20 19 19 19
40 37 35 34 33 33 34 34 33 30 26 26 30 31 30 28 25 21 19 17 18 20 21 22 22 22 23 22 21 21 22 22 21 20 21 22 20 20 19 18 19 18
40 37 33 31 31 31 32 33 33 31 27 26 30 32 31 29 26 23 19 18 20 21 22 22 23 23 24 23 22 22 23 23 21 21 22 22 21 21 20 19 19 17
40 37 34 31 29 29 30 31 33 32 28 26 29 32 32 30 27 23 21 21 22 23 23 23 24 24 25 24 23 23 23 23 22 22 23 23 23 22 22 21 20 17
Wind_Direction
218 219 220 220 220 222 224 226 225 224 224 223 224 228 231 232 233 234 237 240 240 236 232 227 223 223 224 222 226 231 232 233 232 226 224 225 226 228 230 231 235 238
218 219 220 220 221 223 226 228 228 226 226 226 227 229 230 230 230 232 237 244 245 236 227 224 221 222 221 221 229 235 234 230 225 222 222 225 227 228 229 232 235 237
218 219 219 220 222 223 225 226 227 228 227 228 229 229 229 229 229 233 238 244 248 241 230 223 221 222 219 220 232 236 232 226 222 221 222 223 225 226 228 229 231 232
218 219 219 220 223 225 225 225 224 225 227 229 230 228 227 227 228 234 238 239 240 238 233 227 222 221 218 219 230 233 225 220 220 222 222 224 224 224 227 228 228 228
217 218 218 220 222 224 226 226 225 225 228 230 229 227 226 226 228 232 236 236 234 232 231 228 224 221 220 222 228 229 222 218 219 221 224 226 225 225 227 228 227 226
218 217 218 220 222 224 226 226 226 229 233 231 227 227 226 226 229 232 235 234 231 229 228 226 223 223 223 225 227 225 221 219 221 222 225 226 226 226 226 225 225 224
218 218 218 219 221 224 225 226 227 230 233 229 227 228 227 227 230 233 234 232 228 228 227 225 224 225 226 226 225 223 220 219 222 224 226 226 227 227 225 223 224 225
219 219 219 219 221 223 224 225 227 228 228 227 227 228 228 228 231 231 230 228 224 225 226 225 225 227 229 228 226 225 221 220 223 225 227 228 227 227 225 224 225 225
220 220 219 220 220 221 222 224 225 225 225 227 227 227 226 226 227 229 229 224 220 223 225 225 225 226 228 230 229 227 225 223 225 226 228 230 229 228 227 227 228 226
219 219 218 218 219 218 220 223 225 223 222 223 224 223 222 222 223 225 225 220 218 222 225 225 226 227 227 229 229 228 227 227 227 228 228 229 230 231 230 229 230 229
216 216 216 216 216 216 218 222 224 221 218 219 220 220 220 221 221 222 220 218 220 224 227 227 228 229 228 228 229 228 226 226 229 230 229 229 230 230 231 231 230 230
212 213 214 214 214 217 220 221 222 221 217 217 220 220 221 220 221 223 221 220 223 225 228 229 229 229 229 229 230 228 225 224 227 230 230 230 231 231 231 230 228 229
211 212 213 213 214 218 220 220 222 222 219 218 219 220 222 222 222 224 223 222 225 226 228 229 230 230 229 229 230 228 226 225 226 228 229 230 231 232 231 229 228 230
211 213 213 212 214 217 219 219 222 222 220 219 220 221 222 223 225 227 225 225 226 227 229 229 229 230 229 229 229 228 227 227 227 229 230 230 230 231 231 230 230 231
212 213 213 213 214 216 218 219 220 220 220 220 223 224 222 221 226 230 229 228 228 227 227 228 229 230 229 230 230 229 228 228 229 230 231 232 232 231 231 231 232 233
211 211 211 212 213 215 218 218 217 218 219 220 224 225 221 219 225 230 229 230 230 228 228 228 229 229 229 231 232 231 231 230 230 231 231 233 234 233 233 231 231 231
211 210 210 211 213 216 217 216 217 217 217 221 225 222 217 218 225 228 231 232 231 232 233 232 231 230 228 229 230 230 231 231 232 232 232 233 234 234 235 234 232 230
210 209 209 211 214 216 215 214 215 215 217 222 224 218 213 217 223 228 233 235 233 233 235 234 234 230 228 228 229 230 231 231 233 233 232 232 232 232 234 234 235 234
208 208 210 212 215 215 215 215 214 215 219 223 218 212 213 218 222 227 233 235 235 234 234 233 232 230 229 229 229 230 230 229 231 233 231 230 228 230 235 236 237 240
208 209 211 212 215 216 216 216 216 218 223 221 212 210 215 218 221 226 231 235 236 235 234 233 232 231 231 230 230 230 229 229 230 229 228 228 228 229 233 232 229 235
207 208 210 212 215 216 217 217 217 222 226 219 210 213 218 219 222 227 232 236 238 235 234 234 234 234 233 232 231 230 230 229 228 226 226 230 231 231 232 230 229 235
208 207 208 212 215 216 217 217 219 224 227 219 212 214 218 219 222 227 233 239 240 237 236 236 235 234 233 233 232 232 231 230 228 228 231 233 234 234 235 235 238 240
208 208 208 212 215 217 218 219 220 225 228 221 215 215 217 218 220 225 234 243 246 243 240 237 234 232 231 232 233 233 232 232 233 233 233 235 237 238 235 233 237 239
207 209 211 214 217 219 220 221 223 227 228 224 220 217 218 219 221 225 234 246 254 251 244 238 233 231 232 234 235 234 234 237 241 239 235 235 239 239 235 232 234 235
209 210 212 217 220 221 222 224 226 227 228 228 224 220 220 221 222 226 234 246 252 248 242 238 234 231 233 236 238 238 238 242 246 244 238 237 239 238 235 234 234 233
211 212 214 218 221 222 223 225 226 225 225 227 225 221 221 222 223 229 237 243 243 241 238 236 234 234 235 237 240 242 242 245 248 247 243 239 239 238 236 235 233 232
Height
1506 1508 1510 1512 1514 1516 1517 1519 1520 1522 1524 1526 1528 1529 1531 1532 1533 1533 1534 1535 1536 1539 1540 1540 1540 1541 1542 1543 1543 1543 1544 1544 1545 1545 1545 1546 1547 1547 1548 1549 1549 1549
1504 1506 1508 1510 1512 1514 1515 1517 1519 1521 1523 1525 1527 1528 1529 1530 1531 1532 1533 1533 1534 1536 1538 1538 1538 1539 1540 1541 1542 1542 1543 1543 1544 1544 1544 1545 1546 1546 1547 1548 1548 1548
1502 1504 1506 1508 1510 1512 1514 1516 1517 1520 1522 1524 1525 1526 1527 1528 1530 1531 1531 1532 1532 1534 1535 1536 1537 1538 1538 1539 1540 1541 1542 1542 1542 1543 1543 1544 1545 1546 1546 1547 1547 1548
1500 1502 1504 1507 1509 1511 1512 1514 1516 1518 1520 1521 1522 1524 1525 1527 1528 1529 1530 1531 1532 1532 1533 1534 1535 1536 1537 1538 1539 1540 1540 1541 1541 1542 1542 1543 1544 1545 1546 1546 1547 1547
1498 1500 1503 1505 1507 1509 1511 1512 1514 1516 1518 1519 1520 1522 1523 1525 1526 1527 1529 1530 1530 1531 1532 1533 1534 1535 1536 1536 1538 1539 1539 1539 1540 1541 1541 1542 1543 1544 1545 1545 1546 1546
1496 1499 1501 1503 1505 1507 1509 1510 1513 1514 1516 1517 1518 1520 1522 1523 1525 1526 1527 1528 1529 1530 1531 1531 1533 1533 1534 1535 1537 1537 1538 1538 1539 1540 1541 1542 1543 1543 1544 1545 1545 1545
1494 1497 1499 1502 1504 1506 1507 1509 1511 1513 1514 1516 1517 1518 1520 1522 1523 1524 1526 1527 1528 1529 1529 1530 1531 1532 1533 1534 1536 1536 1537 1538 1538 1539 1540 1541 1542 1543 1543 1544 1544 1545
1492 1495 1497 1500 1502 1504 1506 1507 1509 1511 1512 1514 1515 1517 1518 1520 1522 1523 1524 1525 1526 1527 1528 1529 1530 1531 1532 1533 1534 1535 1536 1537 1537 1538 1539 1540 1541 1542 1542 1543 1543 1544
1490 1493 1495 1498 1500 1502 1503 1505 1507 1509 1511 1512 1514 1515 1517 1519 1521 1522 1523 1524 1525 1526 1527 1528 1529 1530 1531 1532 1533 1534 1535 1536 1537 1537 1538 1539 1540 1541 1541 1542 1542 1543
1488 1491 1493 1495 1497 1499 1501 1503 1505 1507 1509 1511 1512 1514 1516 1518 1519 1521 1522 1522 1523 1524 1525 1527 1528 1529 1530 1531 1532 1533 1534 1535 1536 1536 1537 1538 1539 1540 1541 1541 1541 1542
1486 1489 1491 1493 1495 1497 1499 1501 1503 1506 1508 1509 1511 1513 1515 1516 1518 1519 1520 1521 1522 1523 1524 1525 1527 1528 1529 1530 1530 1531 1533 1534 1535 1535 1536 1537 1538 1539 1539 1540 1541 1541
1484 1486 1488 1490 1493 1496 1497 1500 1502 1504 1506 1508 1509 1511 1513 1515 1516 1518 1519 1520 1521 1522 1523 1524 1525 1527 1528 1528 1529 1530 1531 1532 1533 1534 1536 1536 1537 1538 1538 1539 1540 1540
1481 1483 1486 1489 1492 1494 1496 1498 1500 1502 1504 1506 1508 1510 1512 1513 1515 1516 1517 1518 1520 1521 1522 1523 1524 1525 1526 1527 1528 1529 1530 1531 1532 1534 1535 1535 1536 1537 1537 1538 1539 1539
1479 1482 1485 1487 1490 1492 1494 1496 1498 1500 1502 1504 1506 1508 1510 1512 1514 1515 1516 1517 1518 1520 1521 1522 1523 1523 1524 1525 1526 1527 1529 1530 1531 1532 1533 1534 1535 1535 1536 1537 1538 1538
1477 1480 1483 1486 1488 1490 1492 1494 1496 1499 1501 1503 1505 1507 1509 1511 1512 1514 1515 1516 1517 1518 1519 1520 1521 1522 1523 1524 1525 1526 1527 1528 1530 1531 1532 1533 1533 1534 1534 1536 1537 1537
1476 1478 1481 1484 1486 1488 1490 1492 1495 1497 1499 1501 1504 1506 1508 1509 1511 1512 1513 1514 1516 1517 1518 1518 1519 1520 1521 1523 1524 1525 1526 1527 1528 1529 1530 1531 1531 1532 1533 1534 1535 1536
1473 1476 1479 1482 1484 1486 1488 1490 1493 1495 1498 1500 1502 1504 1506 1507 1509 1510 1511 1513 1514 1515 1516 1516 1517 1519 1520 1521 1522 1523 1525 1526 1527 1528 1529 1529 1530 1531 1532 1533 1534 1535
1471 1474 1477 1480 1482 1484 1486 1489 1491 1494 1496 1498 1500 1502 1504 1505 1507 1508 1510 1511 1512 1513 1514 1515 1516 1517 1519 1520 1521 1522 1523 1525 1526 1527 1528 1528 1530 1531 1532 1533 1534 1535
1468 1471 1475 1478 1480 1483 1485 1487 1490 1492 1494 1496 1498 1500 1502 1503 1505 1506 1508 1509 1510 1511 1512 1513 1515 1516 1517 1518 1519 1520 1522 1523 1525 1525 1526 1527 1529 1530 1531 1532 1534 1535
1466 1469 1473 1476 1479 1482 1484 1486 1488 1490 1492 1494 1496 1498 1500 1501 1503 1505 1506 1507 1508 1509 1511 1512 1513 1515 1515 1517 1518 1519 1520 1521 1522 1523 1524 1525 1526 1528 1530 1531 1532 1534
1463 1467 1471 1474 1477 1480 1482 1484 1486 1488 1490 1492 1494 1496 1498 1499 1502 1503 1505 1506 1507 1508 1509 1510 1512 1513 1514 1515 1517 1518 1519 1520 1521 1522 1523 1524 1525 1526 1527 1528 1529 1531
1461 1465 1469 1472 1475 1478 1480 1482 1484 1486 1488 1490 1492 1494 1496 1498 1500 1502 1503 1505 1506 1506 1508 1508 1510 1511 1512 1514 1516 1517 1518 1519 1520 1520 1521 1521 1523 1524 1524 1526 1527 1528
1459 1463 1467 1470 1473 1476 1478 1480 1482 1484 1486 1488 1490 1492 1494 1496 1499 1500 1502 1504 1504 1505 1506 1507 1508 1510 1511 1513 1515 1516 1516 1517 1518 1519 1519 1520 1521 1522 1523 1524 1525 1526
1457 1461 1465 1468 1471 1474 1477 1479 1481 1483 1484 1486 1488 1489 1492 1495 1497 1499 1501 1502 1503 1503 1504 1505 1507 1509 1510 1511 1513 1514 1515 1516 1517 1517 1518 1519 1520 1521 1522 1523 1524 1525
1456 1459 1463 1466 1468 1471 1474 1476 1477 1479 1481 1484 1486 1488 1490 1493 1495 1497 1499 1500 1500 1501 1503 1504 1506 1507 1508 1509 1511 1512 1513 1514 1515 1516 1516 1517 1518 1519 1520 1521 1522 1524
1453 1456 1458 1461 1465 1468 1471 1473 1475 1477 1479 1481 1484 1486 1489 1491 1493 1495 1497 1498 1499 1500 1501 1503 1504 1506 1506 1507 1509 1510 1511 1512 1513 1514 1514 1515 1516 1517 1518 1519 1520 1522